DELTA 1 R/B, 1729

Orbit data source: Space-Track

DELTA 1 R/B, 1729 is space debris in LEO originally from a launch on Sat, 06 Nov 1965 UTC launched from the Air Force Eastern Test Range (AFETR). Debris objects in space refer to the collection of defunct objects orbiting the Earth. Examples of debris include non-operational satellites, rocket bodies, and fragments generated from explosions, collisions, or faulty payload assembly.

Loading next visibility...
Identifier
1729, 1965-089B
Orbit
LEO
Country
Flag of USUS
Related business
Manufacturer
ABL
Mission
Spacecraft
Bus & Motor
ALTAIR, Unknown motor
Mass
~60 kg wet, ~60 kg dry
Launch date (UTC)
1965-11-06 (61 years ago)
Launch vehicle
Unknown
Launch site
Air Force Eastern Test Range (AFETR)
Object type
Payload
Rocket body
Debris
Shape & HBR
Unknown
Radar Cross Section
Medium (>0.1 m² and <1 m²)

Expand to show TLE details & history
Last TLE update: 8 hours ago

TLE from 8 hours ago
0 DELTA 1 R/B
1  1729U 65089B   26150.18307780 -.00000056  00000-0  11392-3 0  9996
2  1729  59.3931  53.6561 0713063 178.3034 339.2209 11.97573689648263
Epoch: 2026-05-30T04:23Z
TLE epoch observation values (Epoch: 2026-05-30T04:23:37.921Z)
Latitude
21.90297°
Longitude
-93.64154°
Altitude
1,160.571 km
Speed
7.511 km/s
True Right ascension
14h 39m 52s
True Declination
21° 47' 26"
Sunlit
Object was in full shadow at epoch
Visualization orbit readout
Latitude
Unknown
Longitude
Unknown
Altitude
Unknown
Speed
Unknown
Apparent Right ascension
Unknown
Apparent Declination
Unknown
Sunlit
N/A
Visualization observer readout
Local Sidereal Time
21:51:26
Azimuth
Unknown
Elevation
Unknown
Doppler factor
Unknown
Orbital elements
Apogee altitude
2,266.525 km
Perigee altitude
1,115.745 km
Semi-major axis
8,069.272 km
Eccentricity
0.07131
Inclination
59.3931°
RAAN
53.6561°
Arg. of periapsis
178.3034°
True anomaly
336.06122°
Mean anomaly
339.2209°
Eccentric anomaly
337.66854°
Mean motion
2.99427 °/min
Orbital period
120.23 mins
BSTAR
0.00011392
Loading maneuver chart data...
Computing Atmospheric mass density...
Loading historical data...
Loading historical data...
Loading historical data...
Loading historical data...
Loading historical data...
Loading historical data...
Loading historical data...

Documentation

Showing up to 5 results
|